[Iaude] MPEC M06: 2018 LG5 [a=1.51,e=0.40,i=49.0,H=18.4]

mpec at mpcdb1.cfa.harvard.edu mpec at mpcdb1.cfa.harvard.edu
Sun Jun 17 11:23:18 EDT 2018


M.P.E.C. 2018-M06                                Issued 2018 June 17, 15:18 UT
 
     The Minor Planet Electronic Circulars contain information on unusual
         minor planets and routine data on comets.  They are published
    on behalf of Division F of the International Astronomical Union by the
          Minor Planet Center, Smithsonian Astrophysical Observatory,
                          Cambridge, MA 02138, U.S.A.

             Prepared using the Tamkin Foundation Computer Network

                              MPC at CFA.HARVARD.EDU
            URL https://www.minorplanetcenter.net/    ISSN 1523-6714


                                   2018 LG5
 
Observations:
     K18L05G KC2018 05 31.31837214 00 25.925+75 54 12.95         21.0 GVEM006F51
     K18L05G* C2018 06 12.42005 14 22 48.681+65 44 02.42         20.9 wUEM006F51
     K18L05G  C2018 06 12.43424 14 22 49.819+65 43 16.70         20.9 wUEM006F51
     K18L05G  C2018 06 12.44844 14 22 50.945+65 42 31.14         21.1 wUEM006F51
     K18L05G  C2018 06 12.46263 14 22 52.078+65 41 45.19         20.9 wUEM006F51
     K18L05G KC2018 06 12.97243 14 23 35.64 +65 14 35.5                VEM006J95
     K18L05G KC2018 06 12.97988 14 23 36.17 +65 14 12.2          20.4 GVEM006J95
     K18L05G KC2018 06 13.21106 14 23 56.17 +65 01 54.5          20.6 RqEM006G58
     K18L05G KC2018 06 13.21868 14 23 56.62 +65 01 29.3          20.3 RqEM006G58
     K18L05G KC2018 06 13.22802 14 23 57.15 +65 01 01.3          19.7 RqEM006G58
     K18L05G IC2018 06 13.87000 14 24 50.18 +64 26 36.5          20.8 VUEM006L01
     K18L05G KC2018 06 13.89235 14 24 51.85 +64 25 24.3          20.7 VUEM006L01
     K18L05G KC2018 06 13.89561 14 24 52.23 +64 25 13.1          20.6 VUEM006L01
     K18L05G KC2018 06 14.12705214 25 11.40 +64 12 48.8          20.6 VuEM006H21
     K18L05G KC2018 06 14.13554714 25 11.98 +64 12 21.4          20.7 VuEM006H21
     K18L05G KC2018 06 14.14163214 25 12.45 +64 12 01.8          20.8 VuEM006H21
     K18L05G KC2018 06 14.18004 14 25 15.47 +64 09 58.9          20.1 GUEM006H36
     K18L05G KC2018 06 14.19395 14 25 16.51 +64 09 12.6          20.7 GUEM006H36
     K18L05G  C2018 06 14.20856 14 25 17.82 +64 08 26.7          20.9 GUEM006I52
     K18L05G  C2018 06 14.21044 14 25 18.04 +64 08 20.5          20.1 GUEM006I52
     K18L05G  C2018 06 14.21233 14 25 18.06 +64 08 14.7          19.9 GUEM006I52
     K18L05G KC2018 06 14.22161 14 25 18.66 +64 07 43.6          20.4 GUEM006H36
     K18L05G KC2018 06 14.91889 14 26 14.98 +63 30 06.4                UEM006587
     K18L05G KC2018 06 14.92012 14 26 14.98 +63 30 01.5                UEM006587
     K18L05G KC2018 06 14.92134 14 26 15.03 +63 29 57.6                UEM006587
     K18L05G KC2018 06 14.92380 14 26 15.23 +63 29 49.9          20.1 GUEM006587
     K18L05G KC2018 06 14.94600 14 26 17.14 +63 28 37.1                VEM006J95
     K18L05G KC2018 06 14.95844 14 26 18.00 +63 27 56.7                VEM006J95
     K18L05G KC2018 06 14.96834 14 26 18.55 +63 27 24.4          20.5 GVEM006204
     K18L05G KC2018 06 14.97106 14 26 18.98 +63 27 15.2          20.7 GVEM006J95
     K18L05G KC2018 06 14.99039 14 26 20.36 +63 26 12.4                VEM006204
     K18L05G KC2018 06 16.16740014 27 53.61 +62 22 20.0          20.9 VuEM006H21
     K18L05G KC2018 06 16.17176714 27 53.94 +62 22 05.6          21.0 VuEM006H21
     K18L05G KC2018 06 16.17739914 27 54.30 +62 21 47.1          21.0 VuEM006H21
 
Observer details:
204 Schiaparelli Observatory.  Observer L. Buzzi.  0.84-m f/3.5 reflector
    + CCD.
587 Sormano.  Observers P. Sicoli, A. Testa.  Measurer P. Sicoli.  0.5-m f/6.8
    reflector + CCD.
F51 Pan-STARRS 1, Haleakala.  Observers J. Bulger, T. Lowe, A. Schultz,
    M. Willman.  Measurers K. Chambers, S. Chastel, L. Denneau, H. Flewelling,
    M. Huber, E. Magnier, Y. Ramanjooloo, R. Wainscoat, C. Waters, R. Weryk.
    1.8-m Ritchey-Chretien + CCD.
G58 Chabot Space and Science Center, Oakland.  Observers G. McKeegan, C. Jung.
    0.9-m f/4.5 Cassegrain + CCD.
H21 Astronomical Research Observatory, Westfield.  Observer R. Holmes.
    Measurers S. Foglia, L. Buzzi, T. Linder, R. Holmes.  0.61-m f/4.5
    astrograph + CCD.
H36 Sandlot Observatory, Scranton.  Observer G. Hug.  0.56-m reflector + CCD.
I52 Steward Observatory, Mt. Lemmon Station.  Observer D. C. Fuls.  Measurers
    B. M. Africano, E. J. Christensen, D. C. Fuls, A. R. Gibbs, A. D. Grauer,
    H. Groeller, J. A. Johnson, R. A. Kowalski, S. M. Larson, G. J. Leonard,
    R. L. Seaman, F. C. Shelly.  1.0-m reflector + CCD.
J95 Great Shefford.  Observer P. Birtwhistle.  0.40-m f/6.0 Schmidt-Cassegrain
    + CCD.
L01 Visnjan Observatory, Tican.  Observer K. Korlevic.  1.0-m f/2.9 reflector
    + CCD.
 
Orbital elements:
2018 LG5                                                 Earth MOID = 0.0626 AU
Epoch 2018 Mar. 23.0 TT = JDT 2458200.5                 MPC
M   8.05483              (2000.0)            P               Q
n   0.53338703     Peri.   19.89195     -0.57447109     -0.43400499
a   1.5058247      Node   113.11181     +0.61096246     -0.79158722
e   0.3987883      Incl.   48.98607     +0.54470894     +0.43015037
P   1.85           H   18.4           G   0.15           U   8
Residuals in seconds of arc
180531 F51  0.0   0.0     180613 L01  0.4+  0.6-    180614 587  0.2-  0.2-
180612 F51  0.0   0.1-    180614 H21  0.3+  0.2-    180614 587  0.1-  0.1+
180612 F51  0.1+  0.1-    180614 H21  0.0   0.1-    180614 J95  0.2+  0.0
180612 F51  0.1+  0.1+    180614 H21  0.1+  0.1-    180614 J95  0.3-  0.1+
180612 F51  0.2+  0.1-    180614 H36  0.2+  1.0+    180614 204  0.3-  0.0
180612 J95  0.0   0.2-    180614 H36  0.2+  0.2-    180614 J95  0.1-  0.2-
180612 J95  0.4-  0.4+    180614 I52  0.1-  0.1-    180614 204  0.6+  0.1+
180613 G58  0.6+  0.1-    180614 I52  0.4+  0.3-    180616 H21  0.0   0.0
180613 G58  0.2-  0.8-    180614 I52  0.4-  0.1+    180616 H21  0.1+  0.1-
180613 G58  1.4-  1.1+    180614 H36  0.6+  0.5+    180616 H21  0.2-  0.1-
180613 L01  0.2-  0.0     180614 587  0.7+  0.6+
180613 L01  0.4-  0.0     180614 587  0.1+  0.3-

Ephemeris:
2018 LG5                 a,e,i = 1.51, 0.40, 49                  q = 0.9053
Date    TT    R. A. (2000) Decl.     Delta      r     Elong.  Phase     V
2018 05 18    12 27 25.3 +85 32 29   0.9565  1.1797    73.6    55.3    20.7
...
2018 06 02    14 04 32.5 +74 33 27   0.9570  1.2707    80.2    51.9    20.7
...
2018 06 10    14 19 16.4 +67 51 17   0.9591  1.3193    83.8    49.9    20.8
...
2018 06 16    14 27 40.8 +62 31 27   0.9642  1.3556    86.4    48.4    20.8
2018 06 17    14 28 58.4 +61 36 49   0.9654  1.3616    86.8    48.2    20.8
2018 06 18    14 30 14.8 +60 41 52   0.9668  1.3676    87.2    47.9    20.8
...
2018 06 24    14 37 33.5 +55 06 11   0.9780  1.4033    89.4    46.4    20.8
...
2018 07 02    14 46 51.5 +47 28 50   1.0025  1.4501    91.8    44.5    20.9
...
2018 07 17    15 04 17.4 +33 21 18   1.0836  1.5346    93.8    41.4    21.1

A. U. Tomatic                (C) Copyright 2018 MPC           M.P.E.C. 2018-M06



More information about the Iaude mailing list